[Date Prev][Date Next][Thread Prev][Thread Next] - [Date Index][Thread Index][Author Index]

2 Line ISS Keps 12-4



ISS
1 25544U 98067A   01338.20891204  .00058649  00000-0  62989-3 0  7932
2 25544  51.6401 313.3360 0010458  52.4102 140.2177 15.63134378173611


----
Via the sarex mailing list at AMSAT.ORG courtesy of AMSAT-NA.
To unsubscribe, send "unsubscribe sarex" to Majordomo@amsat.org



AMSAT Top AMSAT Home